STARLINK-35201

Last updated on Mon Oct 20 2025 00:02:05 GMT+0000 (Coordinated Universal Time)

1 65664U 25211N 25292.11417281 -.00459536 00000+0 -93528-2 0 9995 2 65664 97.6046 334.2748 0001405 60.4161 299.7228 15.47926554 5721
UTC large
Height (km)
Speed (km/s)
/
Latitude / Longitude
Inclination (degrees)
Orbital Period (minutes)
Azimuth
Elevation
Range (km)
Doppler Factor

Next 0 passes for location: London (51.5072 / 0.1276)

Sorry there are no passes over London.